Time,TemperatureF,DewpointF,PressureIn,WindDirection,WindDirectionDegrees,WindSpeedMPH,WindSpeedGustMPH,Humidity,HourlyPrecipIn,Conditions,Clouds,dailyrainin,SoftwareType,DateUTC
2013-05-12 00:02:00,41.6,33.3,29.84,West,278,0.0,0.0,72,0.00,,CLR,0.00,VWS V14.01,2013-05-12 04:02:00,
2013-05-12 00:13:00,41.1,33.5,29.84,West,278,0.0,0.0,74,0.00,,CLR,0.00,VWS V14.01,2013-05-12 04:13:00,
2013-05-12 00:22:00,40.9,33.3,29.83,West,278,0.0,0.0,74,0.00,,CLR,0.00,VWS V14.01,2013-05-12 04:22:00,
2013-05-12 00:27:00,40.9,33.3,29.83,West,278,0.0,0.0,74,0.00,,CLR,0.00,VWS V14.01,2013-05-12 04:27:00,
2013-05-12 00:32:00,40.6,33.3,29.83,West,278,0.0,0.0,75,0.00,,CLR,0.00,VWS V14.01,2013-05-12 04:32:00,
2013-05-12 00:42:00,40.5,33.2,29.83,West,275,0.0,0.0,75,0.00,,CLR,0.00,VWS V14.01,2013-05-12 04:42:00,
2013-05-12 00:47:00,40.5,33.2,29.84,West,272,0.0,0.0,75,0.00,,CLR,0.00,VWS V14.01,2013-05-12 04:47:00,
2013-05-12 00:52:00,40.5,33.2,29.84,West,271,0.0,0.0,75,0.00,,CLR,0.00,VWS V14.01,2013-05-12 04:52:00,
2013-05-12 00:57:00,40.3,33.3,29.84,West,271,0.0,0.0,76,0.00,,CLR,0.00,VWS V14.01,2013-05-12 04:57:00,
2013-05-12 01:02:00,40.3,33.3,29.84,West,271,0.0,0.0,76,0.00,,CLR,0.00,VWS V14.01,2013-05-12 05:02:00,
2013-05-12 01:12:00,40.2,33.2,29.84,West,268,0.0,0.0,76,0.00,,CLR,0.00,VWS V14.01,2013-05-12 05:12:00,
2013-05-12 01:17:00,40.2,33.2,29.84,West,268,0.0,0.0,76,0.00,,CLR,0.00,VWS V14.01,2013-05-12 05:17:00,
2013-05-12 01:22:00,40.2,33.2,29.84,West,268,0.0,0.0,76,0.00,,CLR,0.00,VWS V14.01,2013-05-12 05:22:00,
2013-05-12 01:27:00,40.2,33.2,29.84,West,268,0.0,0.0,76,0.00,,CLR,0.00,VWS V14.01,2013-05-12 05:27:00,
2013-05-12 01:32:00,40.1,33.2,29.84,West,267,0.0,0.0,76,0.00,,CLR,0.00,VWS V14.01,2013-05-12 05:32:00,
2013-05-12 01:37:00,40.1,33.2,29.84,West,267,0.0,0.0,76,0.00,,CLR,0.00,VWS V14.01,2013-05-12 05:37:00,
2013-05-12 01:47:00,39.9,33.3,29.84,West,267,0.0,0.0,77,0.00,,CLR,0.00,VWS V14.01,2013-05-12 05:47:00,
2013-05-12 01:52:00,39.8,33.2,29.84,West,267,0.0,0.0,77,0.00,,CLR,0.00,VWS V14.01,2013-05-12 05:52:00,
2013-05-12 01:57:00,39.6,33.3,29.84,West,267,0.0,0.0,78,0.00,,CLR,0.00,VWS V14.01,2013-05-12 05:57:00,
2013-05-12 02:02:00,39.5,33.2,29.84,WSW,256,0.0,0.0,78,0.00,,CLR,0.00,VWS V14.01,2013-05-12 06:02:00,
2013-05-12 02:12:00,39.3,33.3,29.84,WSW,254,0.0,0.0,79,0.00,,CLR,0.00,VWS V14.01,2013-05-12 06:12:00,
2013-05-12 02:17:00,39.3,33.0,29.84,WSW,254,0.0,0.0,78,0.00,,CLR,0.00,VWS V14.01,2013-05-12 06:17:00,
2013-05-12 02:22:00,39.5,33.2,29.84,WSW,254,0.0,0.0,78,0.00,,CLR,0.00,VWS V14.01,2013-05-12 06:22:00,
2013-05-12 02:27:00,39.3,33.0,29.84,WSW,254,0.0,0.0,78,0.00,,CLR,0.00,VWS V14.01,2013-05-12 06:27:00,
2013-05-12 02:37:00,39.5,32.6,29.84,SW,232,0.0,0.0,76,0.00,,CLR,0.00,VWS V14.01,2013-05-12 06:37:00,
2013-05-12 02:42:00,39.6,32.7,29.84,SW,233,0.0,0.0,76,0.00,,CLR,0.00,VWS V14.01,2013-05-12 06:42:00,
2013-05-12 02:47:00,39.8,32.5,29.84,SW,233,0.0,0.0,75,0.00,,CLR,0.00,VWS V14.01,2013-05-12 06:47:00,
2013-05-12 02:52:00,39.8,32.5,29.84,SW,234,0.0,0.0,75,0.00,,CLR,0.00,VWS V14.01,2013-05-12 06:52:00,
2013-05-12 02:57:00,39.6,32.3,29.84,SW,230,0.0,0.0,75,0.00,,CLR,0.00,VWS V14.01,2013-05-12 06:57:00,
2013-05-12 03:02:00,39.5,32.2,29.84,SW,219,0.0,0.0,75,0.00,,CLR,0.00,VWS V14.01,2013-05-12 07:02:00,
2013-05-12 03:07:00,39.5,32.2,29.84,SW,226,0.0,0.0,75,0.00,,CLR,0.00,VWS V14.01,2013-05-12 07:07:00,
2013-05-12 03:12:00,39.5,31.9,29.84,SW,229,0.0,0.0,74,0.00,,CLR,0.00,VWS V14.01,2013-05-12 07:12:00,
2013-05-12 03:17:00,39.3,31.7,29.84,SW,229,0.0,0.0,74,0.00,,CLR,0.00,VWS V14.01,2013-05-12 07:17:00,
2013-05-12 03:22:00,39.2,32.0,29.84,SW,229,0.0,0.0,75,0.00,,CLR,0.00,VWS V14.01,2013-05-12 07:22:00,
2013-05-12 03:27:00,39.1,31.9,29.84,SW,229,0.0,0.0,75,0.00,,CLR,0.00,VWS V14.01,2013-05-12 07:27:00,
2013-05-12 03:32:00,38.9,31.7,29.84,SW,229,0.0,0.0,75,0.00,,CLR,0.00,VWS V14.01,2013-05-12 07:32:00,
2013-05-12 03:37:00,38.6,31.7,29.84,SW,229,0.0,0.0,76,0.00,,CLR,0.00,VWS V14.01,2013-05-12 07:37:00,
2013-05-12 03:47:00,38.3,31.4,29.83,SW,229,0.0,0.0,76,0.00,,CLR,0.00,VWS V14.01,2013-05-12 07:47:00,
2013-05-12 03:52:00,38.3,31.4,29.83,SW,229,0.0,0.0,76,0.00,,CLR,0.00,VWS V14.01,2013-05-12 07:52:00,
2013-05-12 03:57:00,38.3,31.4,29.83,SW,229,0.0,0.0,76,0.00,,CLR,0.00,VWS V14.01,2013-05-12 07:57:00,
2013-05-12 04:02:00,38.2,31.0,29.83,SW,229,0.0,0.0,75,0.00,,CLR,0.00,VWS V14.01,2013-05-12 08:02:00,
2013-05-12 04:12:00,38.2,31.0,29.83,SW,229,0.0,0.0,75,0.00,,CLR,0.00,VWS V14.01,2013-05-12 08:12:00,
2013-05-12 04:17:00,38.2,30.7,29.84,SW,229,0.0,0.0,74,0.00,,CLR,0.00,VWS V14.01,2013-05-12 08:17:00,
2013-05-12 04:22:00,38.2,30.3,29.84,SW,229,0.0,0.0,73,0.00,,CLR,0.00,VWS V14.01,2013-05-12 08:22:00,
2013-05-12 04:32:00,38.0,30.1,29.84,SW,229,0.0,0.0,73,0.00,,CLR,0.00,VWS V14.01,2013-05-12 08:32:00,
2013-05-12 04:37:00,37.9,30.0,29.84,SW,229,0.0,0.0,73,0.00,,CLR,0.00,VWS V14.01,2013-05-12 08:37:00,
2013-05-12 04:42:00,37.9,30.0,29.84,SW,229,0.0,0.0,73,0.00,,CLR,0.00,VWS V14.01,2013-05-12 08:42:00,
2013-05-12 04:47:00,37.9,29.7,29.84,SW,229,0.0,0.0,72,0.00,,CLR,0.00,VWS V14.01,2013-05-12 08:47:00,
2013-05-12 04:52:00,37.8,29.9,29.84,SW,229,0.0,0.0,73,0.00,,CLR,0.00,VWS V14.01,2013-05-12 08:52:00,
2013-05-12 04:57:00,37.8,29.6,29.84,SW,229,0.0,0.0,72,0.00,,CLR,0.00,VWS V14.01,2013-05-12 08:57:00,
2013-05-12 05:02:00,37.8,29.6,29.84,SW,229,0.0,0.0,72,0.00,,CLR,0.00,VWS V14.01,2013-05-12 09:02:00,
2013-05-12 05:12:00,37.6,29.4,29.84,SW,229,0.0,0.0,72,0.00,,CLR,0.00,VWS V14.01,2013-05-12 09:12:00,
2013-05-12 05:17:00,37.6,29.4,29.84,SW,229,0.0,0.0,72,0.00,,CLR,0.00,VWS V14.01,2013-05-12 09:17:00,
2013-05-12 05:22:00,37.6,29.4,29.84,SW,229,0.0,0.0,72,0.00,,CLR,0.00,VWS V14.01,2013-05-12 09:22:00,
2013-05-12 05:27:00,37.6,29.4,29.84,SW,229,0.0,0.0,72,0.00,,CLR,0.00,VWS V14.01,2013-05-12 09:27:00,
2013-05-12 05:32:00,37.6,29.4,29.84,SW,229,0.0,0.0,72,0.00,,CLR,0.00,VWS V14.01,2013-05-12 09:32:00,
2013-05-12 05:37:00,37.6,29.4,29.84,SW,229,0.0,0.0,72,0.00,,CLR,0.00,VWS V14.01,2013-05-12 09:37:00,
2013-05-12 05:42:00,37.8,29.3,29.84,SW,230,0.0,0.0,71,0.00,,CLR,0.00,VWS V14.01,2013-05-12 09:42:00,
2013-05-12 05:47:00,37.8,29.3,29.84,WSW,247,0.0,0.0,71,0.00,,CLR,0.00,VWS V14.01,2013-05-12 09:47:00,
2013-05-12 05:57:00,37.3,29.1,29.84,WSW,239,0.0,0.0,72,0.00,,CLR,0.00,VWS V14.01,2013-05-12 09:57:00,
2013-05-12 06:02:00,37.2,29.4,29.85,WSW,240,0.0,0.0,73,0.00,,CLR,0.00,VWS V14.01,2013-05-12 10:02:00,
2013-05-12 06:12:00,37.0,29.5,29.85,SW,234,0.0,0.0,74,0.00,,CLR,0.00,VWS V14.01,2013-05-12 10:12:00,
2013-05-12 06:17:00,36.9,29.4,29.85,SW,234,0.0,0.0,74,0.00,,CLR,0.00,VWS V14.01,2013-05-12 10:17:00,
2013-05-12 06:22:00,36.8,29.6,29.85,SW,232,0.0,0.0,75,0.00,,CLR,0.00,VWS V14.01,2013-05-12 10:22:00,
2013-05-12 06:27:00,36.6,29.4,29.85,SW,233,0.0,0.0,75,0.00,,CLR,0.00,VWS V14.01,2013-05-12 10:27:00,
2013-05-12 06:32:00,36.6,29.4,29.85,SW,232,0.0,0.0,75,0.00,,CLR,0.00,VWS V14.01,2013-05-12 10:32:00,
2013-05-12 06:37:00,36.6,29.4,29.85,SW,230,0.0,0.0,75,0.00,,CLR,0.00,VWS V14.01,2013-05-12 10:37:00,
2013-05-12 06:42:00,36.5,29.3,29.85,SW,230,0.0,0.0,75,0.00,,CLR,0.00,VWS V14.01,2013-05-12 10:42:00,
2013-05-12 06:52:00,36.5,29.7,29.85,SW,230,0.0,0.0,76,0.00,,CLR,0.00,VWS V14.01,2013-05-12 10:52:00,
2013-05-12 06:57:00,36.5,29.7,29.85,SW,230,0.0,0.0,76,0.00,,CLR,0.00,VWS V14.01,2013-05-12 10:57:00,
2013-05-12 07:02:00,36.5,29.7,29.86,WSW,244,0.0,0.0,76,0.00,,FEW041,0.00,VWS V14.01,2013-05-12 11:02:00,
2013-05-12 07:07:00,36.6,29.4,29.86,WSW,246,0.0,0.0,75,0.00,,FEW041,0.00,VWS V14.01,2013-05-12 11:07:00,
2013-05-12 07:12:00,36.6,29.4,29.86,WSW,246,0.0,0.0,75,0.00,,FEW041,0.00,VWS V14.01,2013-05-12 11:12:00,
2013-05-12 07:17:00,36.8,29.6,29.86,WSW,246,0.0,0.0,75,0.00,,FEW041,0.00,VWS V14.01,2013-05-12 11:17:00,
2013-05-12 07:27:00,37.0,29.8,29.86,WSW,250,0.0,0.0,75,0.00,,FEW041,0.00,VWS V14.01,2013-05-12 11:27:00,
2013-05-12 07:32:00,37.2,30.0,29.86,WSW,250,0.0,0.0,75,0.00,,FEW041,0.00,VWS V14.01,2013-05-12 11:32:00,
2013-05-12 07:37:00,37.5,30.0,29.86,WSW,243,0.0,0.0,74,0.00,,FEW041,0.00,VWS V14.01,2013-05-12 11:37:00,
2013-05-12 07:42:00,37.6,30.1,29.86,West,265,0.0,0.0,74,0.00,,FEW041,0.00,VWS V14.01,2013-05-12 11:42:00,
2013-05-12 07:52:00,38.0,30.5,29.87,WNW,285,0.0,0.0,74,0.00,,FEW041,0.00,VWS V14.01,2013-05-12 11:52:00,
2013-05-12 07:57:00,38.2,30.3,29.87,WNW,292,0.0,0.0,73,0.00,,FEW041,0.00,VWS V14.01,2013-05-12 11:57:00,
2013-05-12 08:02:00,38.3,30.4,29.87,WSW,251,0.0,0.0,73,0.00,,FEW041,0.00,VWS V14.01,2013-05-12 12:02:00,
2013-05-12 08:12:00,38.9,30.7,29.87,WNW,287,0.0,0.0,72,0.00,,FEW041,0.00,VWS V14.01,2013-05-12 12:12:00,
2013-05-12 08:17:00,39.2,31.0,29.87,West,272,0.0,0.0,72,0.00,,FEW041,0.00,VWS V14.01,2013-05-12 12:17:00,
2013-05-12 08:22:00,39.6,31.3,29.87,West,264,0.0,0.0,72,0.00,,FEW041,0.00,VWS V14.01,2013-05-12 12:22:00,
2013-05-12 08:27:00,39.9,31.3,29.87,NW,323,0.0,0.0,71,0.00,,FEW041,0.00,VWS V14.01,2013-05-12 12:27:00,
2013-05-12 08:32:00,40.3,31.3,29.87,West,274,0.0,0.0,70,0.00,,FEW041,0.00,VWS V14.01,2013-05-12 12:32:00,
2013-05-12 08:37:00,40.8,31.1,29.87,WNW,302,0.0,0.0,68,0.00,,FEW041,0.00,VWS V14.01,2013-05-12 12:37:00,
2013-05-12 08:47:00,41.1,30.2,29.87,West,270,0.0,0.0,65,0.00,,FEW041,0.00,VWS V14.01,2013-05-12 12:47:00,
2013-05-12 08:52:00,41.6,30.7,29.87,NNW,332,0.0,0.0,65,0.00,,FEW041,0.00,VWS V14.01,2013-05-12 12:52:00,
2013-05-12 08:57:00,41.5,29.1,29.87,North,352,0.0,0.0,61,0.00,,FEW041,0.00,VWS V14.01,2013-05-12 12:57:00,
2013-05-12 09:02:00,41.6,29.2,29.88,NW,309,0.0,0.0,61,0.00,,BKN050,0.00,VWS V14.01,2013-05-12 13:02:00,
2013-05-12 09:12:00,41.9,27.4,29.88,NNW,330,0.0,0.0,56,0.00,,BKN050,0.00,VWS V14.01,2013-05-12 13:12:00,
2013-05-12 09:17:00,42.2,27.6,29.88,NNW,343,0.0,0.0,56,0.00,,BKN050,0.00,VWS V14.01,2013-05-12 13:17:00,
2013-05-12 09:27:00,42.3,27.3,29.88,NNW,343,0.0,0.0,55,0.00,,BKN050,0.00,VWS V14.01,2013-05-12 13:27:00,
2013-05-12 09:37:00,42.8,26.9,29.89,NNW,344,0.0,0.0,53,0.00,,BKN050,0.00,VWS V14.01,2013-05-12 13:37:00,
2013-05-12 09:42:00,42.8,25.9,29.89,NNW,337,0.0,0.0,51,0.00,,BKN050,0.00,VWS V14.01,2013-05-12 13:42:00,
2013-05-12 09:47:00,42.5,26.1,29.89,NW,326,0.0,0.0,52,0.00,,BKN050,0.00,VWS V14.01,2013-05-12 13:47:00,
2013-05-12 09:57:00,43.3,25.9,29.89,NNW,336,0.0,0.0,50,0.00,,BKN050,0.00,VWS V14.01,2013-05-12 13:57:00,
2013-05-12 10:02:00,43.3,25.4,29.89,NW,326,0.0,0.0,49,0.00,,BKN033,0.00,VWS V14.01,2013-05-12 14:02:00,
2013-05-12 10:12:00,43.8,27.3,29.89,NW,322,0.0,0.0,52,0.00,,BKN033,0.00,VWS V14.01,2013-05-12 14:12:00,
2013-05-12 10:17:00,43.6,25.7,29.89,WNW,289,0.0,0.0,49,0.00,,BKN033,0.00,VWS V14.01,2013-05-12 14:17:00,
2013-05-12 10:22:00,43.9,27.0,29.89,WNW,288,0.0,0.0,51,0.00,,BKN033,0.00,VWS V14.01,2013-05-12 14:22:00,
2013-05-12 10:27:00,43.8,26.9,29.89,NNW,330,0.0,0.0,51,0.00,,BKN033,0.00,VWS V14.01,2013-05-12 14:27:00,
2013-05-12 10:37:00,43.6,25.7,29.90,NNW,337,0.0,0.0,49,0.00,,BKN033,0.00,VWS V14.01,2013-05-12 14:37:00,
2013-05-12 10:42:00,43.2,25.4,29.90,North,359,0.0,0.0,49,0.00,,BKN033,0.00,VWS V14.01,2013-05-12 14:42:00,
2013-05-12 10:47:00,43.6,26.7,29.90,NNW,346,0.0,0.0,51,0.00,,BKN033,0.00,VWS V14.01,2013-05-12 14:47:00,
2013-05-12 10:52:00,43.2,25.8,29.90,North,352,0.0,0.0,50,0.00,,BKN033,0.00,VWS V14.01,2013-05-12 14:52:00,
2013-05-12 10:57:00,43.2,25.8,29.90,NW,326,0.0,0.0,50,0.00,,BKN033,0.00,VWS V14.01,2013-05-12 14:57:00,
2013-05-12 11:07:00,43.5,25.6,29.90,NNW,340,0.0,0.0,49,0.00,,BKN042,0.00,VWS V14.01,2013-05-12 15:07:00,
2013-05-12 11:17:00,43.2,26.3,29.91,NNW,330,0.0,0.0,51,0.00,,BKN042,0.00,VWS V14.01,2013-05-12 15:17:00,
2013-05-12 11:22:00,43.6,26.2,29.91,NW,318,0.0,0.0,50,0.00,,BKN042,0.00,VWS V14.01,2013-05-12 15:22:00,
2013-05-12 11:32:00,44.3,27.3,29.92,West,281,0.0,0.0,51,0.00,,BKN042,0.00,VWS V14.01,2013-05-12 15:32:00,
2013-05-12 11:37:00,44.5,26.0,29.92,North,0,0.0,0.0,48,0.00,,BKN042,0.00,VWS V14.01,2013-05-12 15:37:00,
2013-05-12 11:42:00,44.6,26.6,29.92,NNW,342,0.0,0.0,49,0.00,,BKN042,0.00,VWS V14.01,2013-05-12 15:42:00,
2013-05-12 11:47:00,44.2,27.2,29.91,NW,325,0.0,0.0,51,0.00,,BKN042,0.00,VWS V14.01,2013-05-12 15:47:00,
2013-05-12 11:52:00,44.9,26.9,29.91,WNW,295,0.0,0.0,49,0.00,,BKN042,0.00,VWS V14.01,2013-05-12 15:52:00,
2013-05-12 11:57:00,44.9,26.9,29.91,NNW,346,0.0,0.0,49,0.00,,BKN042,0.00,VWS V14.01,2013-05-12 15:57:00,
2013-05-12 12:02:00,44.8,25.8,29.92,WNW,291,0.0,0.0,47,0.00,,BKN036,0.00,VWS V14.01,2013-05-12 16:02:00,
2013-05-12 12:12:00,44.8,26.8,29.92,NNW,340,0.0,0.0,49,0.00,,BKN036,0.00,VWS V14.01,2013-05-12 16:12:00,
2013-05-12 12:17:00,45.1,26.6,29.92,NNW,347,0.0,0.0,48,0.00,,BKN036,0.00,VWS V14.01,2013-05-12 16:17:00,
2013-05-12 12:22:00,44.9,25.9,29.92,NW,311,0.0,0.0,47,0.00,,BKN036,0.00,VWS V14.01,2013-05-12 16:22:00,
2013-05-12 12:27:00,45.5,28.0,29.92,WNW,289,0.0,0.0,50,0.00,,BKN036,0.00,VWS V14.01,2013-05-12 16:27:00,
2013-05-12 12:32:00,45.2,26.7,29.92,WNW,287,0.0,0.0,48,0.00,,BKN036,0.00,VWS V14.01,2013-05-12 16:32:00,
2013-05-12 12:37:00,45.4,26.9,29.92,NW,304,0.0,0.0,48,0.00,,BKN036,0.00,VWS V14.01,2013-05-12 16:37:00,
2013-05-12 12:42:00,46.5,26.9,29.92,NW,316,0.0,0.0,46,0.00,,BKN036,0.00,VWS V14.01,2013-05-12 16:42:00,
2013-05-12 12:47:00,46.0,25.3,29.92,NNW,342,0.0,0.0,44,0.00,,BKN036,0.00,VWS V14.01,2013-05-12 16:47:00,
2013-05-12 12:52:00,45.2,26.2,29.92,WNW,291,0.0,0.0,47,0.00,,BKN036,0.00,VWS V14.01,2013-05-12 16:52:00,
2013-05-12 12:57:00,45.2,25.7,29.92,NW,311,0.0,0.0,46,0.00,,BKN036,0.00,VWS V14.01,2013-05-12 16:57:00,
2013-05-12 13:02:00,45.4,25.3,29.92,WNW,302,0.0,0.0,45,0.00,,BKN036,0.00,VWS V14.01,2013-05-12 17:02:00,
2013-05-12 13:12:00,45.4,26.4,29.92,NW,320,0.0,0.0,47,0.00,,BKN036,0.00,VWS V14.01,2013-05-12 17:12:00,
2013-05-12 13:17:00,45.2,26.2,29.93,NW,319,0.0,0.0,47,0.00,,BKN036,0.00,VWS V14.01,2013-05-12 17:17:00,
2013-05-12 13:22:00,44.9,25.9,29.93,NW,305,0.0,0.0,47,0.00,,BKN036,0.00,VWS V14.01,2013-05-12 17:22:00,
2013-05-12 13:27:00,45.8,27.7,29.93,NW,320,0.0,0.0,49,0.00,,BKN036,0.00,VWS V14.01,2013-05-12 17:27:00,
2013-05-12 13:32:00,46.4,26.2,29.93,West,271,0.0,0.0,45,0.00,,BKN036,0.00,VWS V14.01,2013-05-12 17:32:00,
2013-05-12 13:37:00,45.7,26.1,29.93,WSW,251,0.0,0.0,46,0.00,,BKN036,0.00,VWS V14.01,2013-05-12 17:37:00,
2013-05-12 13:42:00,46.4,27.8,29.93,SW,233,0.0,0.0,48,0.00,,OVC034,0.00,VWS V14.01,2013-05-12 17:42:00,
2013-05-12 13:47:00,46.1,25.4,29.93,NNW,342,0.0,0.0,44,0.00,,OVC034,0.00,VWS V14.01,2013-05-12 17:47:00,
2013-05-12 13:52:00,46.0,24.2,29.93,WNW,299,0.0,0.0,42,0.00,,OVC034,0.00,VWS V14.01,2013-05-12 17:52:00,
2013-05-12 13:57:00,46.2,26.6,29.93,NW,323,0.0,0.0,46,0.00,,OVC034,0.00,VWS V14.01,2013-05-12 17:57:00,
2013-05-12 14:07:00,47.3,27.0,29.93,WNW,301,0.0,0.0,45,0.00,,OVC034,0.00,VWS V14.01,2013-05-12 18:07:00,
2013-05-12 14:12:00,47.0,25.7,29.93,NNW,330,0.0,0.0,43,0.00,,OVC034,0.00,VWS V14.01,2013-05-12 18:12:00,
2013-05-12 14:22:00,47.9,25.4,29.93,NNW,339,0.0,0.0,41,0.00,,OVC034,0.00,VWS V14.01,2013-05-12 18:22:00,
2013-05-12 14:27:00,47.3,24.2,29.93,NW,311,0.0,0.0,40,0.00,,OVC034,0.00,VWS V14.01,2013-05-12 18:27:00,
2013-05-12 14:32:00,47.3,23.6,29.93,West,270,0.0,0.0,39,0.00,,OVC034,0.00,VWS V14.01,2013-05-12 18:32:00,
2013-05-12 14:42:00,47.9,24.1,29.93,NNW,332,0.0,0.0,39,0.00,,OVC034,0.00,VWS V14.01,2013-05-12 18:42:00,
2013-05-12 14:47:00,47.9,24.1,29.93,NNW,328,0.0,0.0,39,0.00,,OVC034,0.00,VWS V14.01,2013-05-12 18:47:00,
2013-05-12 14:52:00,47.6,23.9,29.93,West,280,0.0,0.0,39,0.00,,OVC034,0.00,VWS V14.01,2013-05-12 18:52:00,
2013-05-12 14:57:00,48.0,24.9,29.93,West,271,0.0,0.0,40,0.00,,OVC034,0.00,VWS V14.01,2013-05-12 18:57:00,
2013-05-12 15:02:00,47.7,25.8,29.93,NW,312,0.0,0.0,42,0.00,,OVC034,0.00,VWS V14.01,2013-05-12 19:02:00,
2013-05-12 15:07:00,47.9,24.8,29.93,West,277,0.0,0.0,40,0.00,,OVC034,0.00,VWS V14.01,2013-05-12 19:07:00,
2013-05-12 15:12:00,48.8,25.6,29.93,NW,316,0.0,0.0,40,0.00,,OVC034,0.00,VWS V14.01,2013-05-12 19:12:00,
2013-05-12 15:17:00,49.1,25.8,29.93,NW,309,0.0,0.0,40,0.00,,OVC034,0.00,VWS V14.01,2013-05-12 19:17:00,
2013-05-12 15:22:00,49.6,25.0,29.93,NW,313,0.0,0.0,38,0.00,,OVC034,0.00,VWS V14.01,2013-05-12 19:22:00,
2013-05-12 15:27:00,49.1,24.6,29.93,NW,308,0.0,0.0,38,0.00,,OVC034,0.00,VWS V14.01,2013-05-12 19:27:00,
2013-05-12 15:32:00,48.5,25.3,29.92,NNW,337,0.0,0.0,40,0.00,,OVC034,0.00,VWS V14.01,2013-05-12 19:32:00,
2013-05-12 15:37:00,48.3,25.1,29.92,NNW,337,0.0,0.0,40,0.00,,OVC034,0.00,VWS V14.01,2013-05-12 19:37:00,
2013-05-12 15:42:00,48.5,25.3,29.92,WNW,294,0.0,0.0,40,0.00,,FEW036,0.00,VWS V14.01,2013-05-12 19:42:00,
2013-05-12 15:47:00,48.8,25.0,29.92,NE,48,0.0,0.0,39,0.00,,FEW036,0.00,VWS V14.01,2013-05-12 19:47:00,
2013-05-12 15:52:00,48.8,23.7,29.92,NW,326,0.0,0.0,37,0.00,,FEW036,0.00,VWS V14.01,2013-05-12 19:52:00,
2013-05-12 15:57:00,48.6,24.2,29.92,NNW,330,0.0,0.0,38,0.00,,FEW036,0.00,VWS V14.01,2013-05-12 19:57:00,
2013-05-12 16:02:00,48.6,24.8,29.92,NW,306,0.0,0.0,39,0.00,,FEW036,0.00,VWS V14.01,2013-05-12 20:02:00,
2013-05-12 16:12:00,49.6,25.0,29.92,NNW,336,0.0,0.0,38,0.00,,FEW036,0.00,VWS V14.01,2013-05-12 20:12:00,
2013-05-12 16:17:00,49.4,25.5,29.92,WNW,301,0.0,0.0,39,0.00,,FEW036,0.00,VWS V14.01,2013-05-12 20:17:00,
2013-05-12 16:22:00,49.9,25.3,29.92,West,275,0.0,0.0,38,0.00,,FEW036,0.00,VWS V14.01,2013-05-12 20:22:00,
2013-05-12 16:27:00,51.0,26.3,29.92,NW,316,0.0,0.0,38,0.00,,FEW036,0.00,VWS V14.01,2013-05-12 20:27:00,
2013-05-12 16:32:00,51.1,25.8,29.91,NNW,344,0.0,0.0,37,0.00,,FEW036,0.00,VWS V14.01,2013-05-12 20:32:00,
2013-05-12 16:37:00,50.2,25.0,29.91,NNW,335,0.0,0.0,37,0.00,,FEW036,0.00,VWS V14.01,2013-05-12 20:37:00,
2013-05-12 16:42:00,50.4,25.8,29.91,NNW,337,0.0,0.0,38,0.00,,FEW036,0.00,VWS V14.01,2013-05-12 20:42:00,
2013-05-12 16:47:00,50.7,25.4,29.91,NNW,347,0.0,0.0,37,0.00,,FEW036,0.00,VWS V14.01,2013-05-12 20:47:00,
2013-05-12 16:52:00,50.1,24.2,29.91,NW,305,0.0,0.0,36,0.00,,FEW036,0.00,VWS V14.01,2013-05-12 20:52:00,
2013-05-12 17:02:00,50.5,25.9,29.90,WNW,288,0.0,0.0,38,0.00,,FEW036,0.00,VWS V14.01,2013-05-12 21:02:00,
2013-05-12 17:12:00,51.1,24.4,29.90,WNW,296,0.0,0.0,35,0.00,,FEW036,0.00,VWS V14.01,2013-05-12 21:12:00,
2013-05-12 17:17:00,50.7,24.7,29.90,NNW,347,0.0,0.0,36,0.00,,FEW036,0.00,VWS V14.01,2013-05-12 21:17:00,
2013-05-12 17:22:00,50.2,24.3,29.90,NNE,13,0.0,0.0,36,0.00,,FEW036,0.00,VWS V14.01,2013-05-12 21:22:00,
2013-05-12 17:27:00,50.7,25.4,29.90,NNW,337,0.0,0.0,37,0.00,,FEW036,0.00,VWS V14.01,2013-05-12 21:27:00,
2013-05-12 17:32:00,50.4,25.8,29.90,WSW,256,0.0,0.0,38,0.00,,FEW036,0.00,VWS V14.01,2013-05-12 21:32:00,
2013-05-12 17:42:00,51.4,24.7,29.90,West,278,0.0,0.0,35,0.00,,FEW048,0.00,VWS V14.01,2013-05-12 21:42:00,
2013-05-12 17:47:00,51.7,25.6,29.90,NW,311,0.0,0.0,36,0.00,,FEW048,0.00,VWS V14.01,2013-05-12 21:47:00,
2013-05-12 17:52:00,51.1,24.4,29.90,NNW,339,0.0,0.0,35,0.00,,FEW048,0.00,VWS V14.01,2013-05-12 21:52:00,
2013-05-12 17:57:00,50.7,25.4,29.90,WNW,295,0.0,0.0,37,0.00,,FEW048,0.00,VWS V14.01,2013-05-12 21:57:00,
2013-05-12 18:02:00,50.7,24.7,29.90,WNW,295,0.0,0.0,36,0.00,,FEW048,0.00,VWS V14.01,2013-05-12 22:02:00,
2013-05-12 18:12:00,51.1,24.4,29.90,North,1,0.0,0.0,35,0.00,,FEW048,0.00,VWS V14.01,2013-05-12 22:12:00,
2013-05-12 18:22:00,51.0,25.7,29.90,NW,304,0.0,0.0,37,0.00,,FEW048,0.00,VWS V14.01,2013-05-12 22:22:00,
2013-05-12 18:32:00,51.3,25.3,29.90,NNW,343,0.0,0.0,36,0.00,,FEW048,0.00,VWS V14.01,2013-05-12 22:32:00,
2013-05-12 18:37:00,51.1,25.8,29.90,North,356,0.0,0.0,37,0.00,,FEW048,0.00,VWS V14.01,2013-05-12 22:37:00,
2013-05-12 18:42:00,51.4,26.0,29.90,West,275,0.0,0.0,37,0.00,,CLR,0.00,VWS V14.01,2013-05-12 22:42:00,
2013-05-12 18:52:00,51.0,24.3,29.90,NNW,330,0.0,0.0,35,0.00,,CLR,0.00,VWS V14.01,2013-05-12 22:52:00,
2013-05-12 19:02:00,50.5,25.9,29.90,WNW,292,0.0,0.0,38,0.00,,CLR,0.00,VWS V14.01,2013-05-12 23:02:00,
2013-05-12 19:12:00,51.0,25.0,29.90,NW,326,0.0,0.0,36,0.00,,CLR,0.00,VWS V14.01,2013-05-12 23:12:00,
2013-05-12 19:17:00,51.3,24.6,29.90,WNW,301,0.0,0.0,35,0.00,,CLR,0.00,VWS V14.01,2013-05-12 23:17:00,
2013-05-12 19:22:00,51.3,25.3,29.90,NNW,340,0.0,0.0,36,0.00,,CLR,0.00,VWS V14.01,2013-05-12 23:22:00,
2013-05-12 19:27:00,50.7,24.7,29.90,NNE,23,0.0,0.0,36,0.00,,CLR,0.00,VWS V14.01,2013-05-12 23:27:00,
2013-05-12 19:32:00,50.4,25.8,29.90,North,357,0.0,0.0,38,0.00,,CLR,0.00,VWS V14.01,2013-05-12 23:32:00,
2013-05-12 19:42:00,50.5,25.2,29.90,NNW,342,0.0,0.0,37,0.00,,CLR,0.00,VWS V14.01,2013-05-12 23:42:00,
2013-05-12 19:52:00,50.5,25.2,29.90,North,349,0.0,0.0,37,0.00,,CLR,0.00,VWS V14.01,2013-05-12 23:52:00,
2013-05-12 19:57:00,50.4,25.8,29.90,North,6,0.0,0.0,38,0.00,,CLR,0.00,VWS V14.01,2013-05-12 23:57:00,
2013-05-12 20:02:00,50.4,25.8,29.90,North,357,0.0,0.0,38,0.00,,CLR,0.00,VWS V14.01,2013-05-13 00:02:00,
2013-05-12 20:12:00,49.8,25.9,29.90,NNE,27,0.0,0.0,39,0.00,,CLR,0.00,VWS V14.01,2013-05-13 00:12:00,
2013-05-12 20:17:00,49.5,26.8,29.90,North,357,0.0,0.0,41,0.00,,CLR,0.00,VWS V14.01,2013-05-13 00:17:00,
2013-05-12 20:22:00,49.4,26.1,29.90,North,1,0.0,0.0,40,0.00,,CLR,0.00,VWS V14.01,2013-05-13 00:22:00,
2013-05-12 20:32:00,49.2,25.3,29.90,North,8,0.0,0.0,39,0.00,,CLR,0.00,VWS V14.01,2013-05-13 00:32:00,
2013-05-12 20:37:00,48.9,25.7,29.90,NNW,346,0.0,0.0,40,0.00,,CLR,0.00,VWS V14.01,2013-05-13 00:37:00,
2013-05-12 20:47:00,48.2,26.2,29.90,North,354,0.0,0.0,42,0.00,,CLR,0.00,VWS V14.01,2013-05-13 00:47:00,
2013-05-12 20:52:00,47.4,27.1,29.90,North,1,0.0,0.0,45,0.00,,CLR,0.00,VWS V14.01,2013-05-13 00:52:00,
2013-05-12 20:57:00,47.0,27.3,29.90,North,1,0.0,0.0,46,0.00,,CLR,0.00,VWS V14.01,2013-05-13 00:57:00,
2013-05-12 21:02:00,46.7,27.0,29.91,North,1,0.0,0.0,46,0.00,,CLR,0.00,VWS V14.01,2013-05-13 01:02:00,
2013-05-12 21:12:00,46.1,27.5,29.91,North,1,0.0,0.0,48,0.00,,CLR,0.00,VWS V14.01,2013-05-13 01:12:00,
2013-05-12 21:17:00,45.7,27.6,29.92,North,1,0.0,0.0,49,0.00,,CLR,0.00,VWS V14.01,2013-05-13 01:17:00,
2013-05-12 21:22:00,45.5,28.0,29.92,North,1,0.0,0.0,50,0.00,,CLR,0.00,VWS V14.01,2013-05-13 01:22:00,
2013-05-12 21:27:00,45.2,28.6,29.92,North,1,0.0,0.0,52,0.00,,CLR,0.00,VWS V14.01,2013-05-13 01:27:00,
2013-05-12 21:37:00,44.6,28.5,29.92,North,1,0.0,0.0,53,0.00,,CLR,0.00,VWS V14.01,2013-05-13 01:37:00,
2013-05-12 21:42:00,44.6,28.5,29.92,North,1,0.0,0.0,53,0.00,,CLR,0.00,VWS V14.01,2013-05-13 01:42:00,
2013-05-12 21:47:00,44.6,29.0,29.93,North,1,0.0,0.0,54,0.00,,CLR,0.00,VWS V14.01,2013-05-13 01:47:00,
2013-05-12 21:52:00,44.1,29.4,29.93,North,1,0.0,0.0,56,0.00,,CLR,0.00,VWS V14.01,2013-05-13 01:52:00,
2013-05-12 21:57:00,43.3,29.5,29.93,North,1,0.0,0.0,58,0.00,,CLR,0.00,VWS V14.01,2013-05-13 01:57:00,
2013-05-12 22:02:00,43.1,29.3,29.93,North,1,0.0,0.0,58,0.00,,CLR,0.00,VWS V14.01,2013-05-13 02:02:00,
2013-05-12 22:12:00,42.5,29.2,29.93,North,1,0.0,0.0,59,0.00,,CLR,0.00,VWS V14.01,2013-05-13 02:12:00,
2013-05-12 22:17:00,42.3,29.4,29.95,North,1,0.0,0.0,60,0.00,,CLR,0.00,VWS V14.01,2013-05-13 02:17:00,
2013-05-12 22:22:00,42.2,28.9,29.95,North,1,0.0,0.0,59,0.00,,CLR,0.00,VWS V14.01,2013-05-13 02:22:00,
2013-05-12 22:27:00,42.3,29.4,29.95,North,1,0.0,0.0,60,0.00,,CLR,0.00,VWS V14.01,2013-05-13 02:27:00,
2013-05-12 22:32:00,42.5,29.2,29.95,North,1,0.0,0.0,59,0.00,,CLR,0.00,VWS V14.01,2013-05-13 02:32:00,
2013-05-12 22:37:00,42.5,28.8,29.95,North,1,0.0,0.0,58,0.00,,CLR,0.00,VWS V14.01,2013-05-13 02:37:00,
2013-05-12 22:42:00,42.6,28.0,29.95,North,1,0.0,0.0,56,0.00,,CLR,0.00,VWS V14.01,2013-05-13 02:42:00,
2013-05-12 22:47:00,42.8,27.8,29.95,North,1,0.0,0.0,55,0.00,,CLR,0.00,VWS V14.01,2013-05-13 02:47:00,
2013-05-12 22:52:00,42.8,27.8,29.95,North,1,0.0,0.0,55,0.00,,CLR,0.00,VWS V14.01,2013-05-13 02:52:00,
2013-05-12 22:57:00,42.8,27.8,29.95,North,1,0.0,0.0,55,0.00,,CLR,0.00,VWS V14.01,2013-05-13 02:57:00,
2013-05-12 23:02:00,42.6,27.6,29.95,North,1,0.0,0.0,55,0.00,,CLR,0.00,VWS V14.01,2013-05-13 03:02:00,
2013-05-12 23:07:00,42.8,27.3,29.95,North,1,0.0,0.0,54,0.00,,CLR,0.00,VWS V14.01,2013-05-13 03:07:00,
2013-05-12 23:12:00,42.6,27.1,29.95,North,1,0.0,0.0,54,0.00,,CLR,0.00,VWS V14.01,2013-05-13 03:12:00,
2013-05-12 23:17:00,42.2,27.6,29.95,North,1,0.0,0.0,56,0.00,,CLR,0.00,VWS V14.01,2013-05-13 03:17:00,
2013-05-12 23:27:00,42.1,27.1,29.95,North,1,0.0,0.0,55,0.00,,CLR,0.00,VWS V14.01,2013-05-13 03:27:00,
2013-05-12 23:32:00,42.1,27.5,29.95,North,1,0.0,0.0,56,0.00,,CLR,0.00,VWS V14.01,2013-05-13 03:32:00,
2013-05-12 23:37:00,41.8,27.7,29.95,North,1,0.0,0.0,57,0.00,,CLR,0.00,VWS V14.01,2013-05-13 03:37:00,
2013-05-12 23:42:00,41.2,27.6,29.95,North,1,0.0,0.0,58,0.00,,CLR,0.00,VWS V14.01,2013-05-13 03:42:00,
2013-05-12 23:52:00,40.6,28.2,29.95,North,1,0.0,0.0,61,0.00,,CLR,0.00,VWS V14.01,2013-05-13 03:52:00,
2013-05-12 23:57:00,40.3,28.3,29.95,North,1,0.0,0.0,62,0.00,,CLR,0.00,VWS V14.01,2013-05-13 03:57:00,